Powrót do katalogu

THORAD DELTA 1 DEB

AktywnySSO
NORAD 8596·DEBRIS·🇺🇸 United States

Wystrzelony Nov 15, 1974 z Vandenberg Space Force Base

Loading…

Następne Przeloty (najbliższe 24 godziny)

TLE

ŚwieżeSource: Space-Track

Epoka: Sep 13, 2026, 13:47 UTC

1  8596U 74089DK  26256.57475111  .00000001  00000-0  23810-3 0  9996
2  8596 101.7543 130.1906 0087962 133.6628 294.2551 12.68844590398030

Śledź THORAD DELTA 1 DEB w czasie rzeczywistym z AllMySat

Download on the App Store